Regional Weather Roundup
Issued by NWS

Home | Current Version | Previous Version | Text Only | Print | Product List | Glossary On
Versions: 1 2 3 4 5 6 7 8 9 10 11 12 13 14 15 16 17 18 19 20 21 22 23 24 25 26 27 28 29 30 31 32 33 34 35 36 37 38 39 40 41 42 43 44 45 46 47 48 49 50
000
ASUS43 KMKX 280411
RWRWI

WISCONSIN REGIONAL WEATHER ROUNDUP
NATIONAL WEATHER SERVICE MILWAUKEE/SULLIVAN WI
1100 PM CDT WED JUL 27 2016

NOTE: "FAIR" INDICATES FEW OR NO CLOUDS BELOW 12,000 FEET WITH NO
SIGNIFICANT WEATHER AND/OR OBSTRUCTIONS TO VISIBILITY.

WIZ001-002-006>008-014>016-023>028-280500-
NORTHWEST WISCONSIN

CITY           SKY/WX    TMP DP  RH WIND       PRES   REMARKS
SUPERIOR ARPT  CLEAR     60  58  92 NE7       30.04R
ASHLAND        CLOUDY    63  60  90 NE8       30.03S
HAYWARD        LGT RAIN  63  61  93 NE7       30.02R FOG
SIREN          NOT AVBL
CUMBERLAND     CLOUDY    63  63 100 N5        30.00R
RICE LAKE      PTCLDY    63  61  93 CALM      30.01R
CHETEK         CLOUDY    65  64  96 N6        29.99R
LADYSMITH      CLOUDY    65  63  94 N6        30.00S
EAU CLAIRE     CLOUDY    66  65  96 NE5       29.96R
MENOMONIE      CLOUDY    67  66  99 CALM      29.98R
NEW RICHMOND   CLOUDY    66  65  99 NE3       29.99R
OSCEOLA        MOCLDY    66  66 100 N3        30.02R
$$

WIZ003>005-009-010-017-018-280500-
NORTH CENTRAL WISCONSIN

CITY           SKY/WX    TMP DP  RH WIND       PRES   REMARKS
MANITOWISH WTR DRIZZLE   63  63 100 NE5       30.03R
ARBOR VITAE    DRIZZLE   64  62  93 E5        30.03R
WOODRUFF       DRIZZLE   64  62  93 E5        30.03R
RHINELANDER    CLOUDY    64  62  93 NE3       30.03S
EAGLE RIVER    LGT RAIN  64  64 100 CALM      30.03S
LAND O LAKES   LGT RAIN  64  64  98 S3        30.04F
PHILLIPS       CLOUDY    64  64 100 E5        30.00F
TOMAHAWK       DRIZZLE   63  62  97 E3        30.01S
MEDFORD        LGT RAIN  63  63 100 E3        29.99R
MERRILL        CLOUDY    63  63 100 SE3       30.00F
$$

WIZ029-030-035-036-043>047-280500-
CENTRAL WISCONSIN

CITY           SKY/WX    TMP DP  RH WIND       PRES   REMARKS
WAUSAU         CLOUDY    64  63  96 CALM      29.98S
MOSINEE        CLOUDY    63  63 100 NE6       29.99F
MARSHFIELD     MOCLDY    66  63  90 E7        29.97S
STEVENS POINT  CLOUDY    63  63  99 E6        29.98F
WAUPACA        RAIN      69  68  97 N6        30.00R
WAUTOMA        NOT AVBL
WISC RAPIDS    CLOUDY    67  63  87 E8        29.98S
CAMP DOUGLAS   MOCLDY    68  66  94 VRB5      29.95R
$$

WIZ011>013-019>022-031-037>040-048>050-280500-
NORTHEAST WISCONSIN

CITY           SKY/WX    TMP DP  RH WIND       PRES   REMARKS
ANTIGO         LGT RAIN  63  63 100 CALM      30.02S
SHAWANO        LGT RAIN  68  64  89 NE9       30.01S
OCONTO         CLOUDY    68  68 100 N7        30.00R
STURGEON BAY   CLOUDY    71  67  87 N8        30.00R
GREEN BAY      RAIN      70  70 100 N7        29.98R FOG
MANITOWOC      MOCLDY    68  65  90 CALM      29.97S
APPLETON       LGT RAIN  70  68  94 NW8       29.98R
CLINTONVILLE   HVY RAIN  64  63  94 NW9       30.01R
OSHKOSH        MOCLDY    72  66  81 SE3       29.95S
$$

WIZ032>034-041-042-053>061-280500-
SOUTHWEST WISCONSIN

CITY           SKY/WX    TMP DP  RH WIND       PRES   REMARKS
LA CROSSE      CLOUDY    74  68  81 E7        29.92S
SPARTA         CLOUDY    70  66  88 E6        29.96R
VIROQUA        CLOUDY    70  67  90 CALM      29.96R
BOSCOBEL       PTCLDY    70  68  93 CALM      29.93F FOG
PRAIRIE DU CHI PTCLDY    70  67  88 CALM      29.93S
PLATTEVILLE    CLEAR     73  70  92 CALM      29.96S
$$

WIZ056-057-062-063-064-067-068-280500-
SOUTH CENTRAL WISCONSIN

CITY           SKY/WX    TMP DP  RH WIND       PRES   REMARKS
REEDSBURG      PTCLDY    71  71 100 CALM      29.93F
BARABOO/DELLS  PTCLDY    70  67  89 SE5       29.94F
LONE ROCK      CLOUDY    69  67  93 CALM      29.93F
MINERAL POINT  PTCLDY    73  68  83 CALM      29.95F
MADISON        CLOUDY    76  67  73 S6        29.93F
MIDDLETON      CLOUDY    73  68  82 CALM      29.95R
WATERTOWN      CLEAR     71  67  89 SE3       29.94F
MONROE         PTCLDY    73  64  73 S5        29.94F
JANESVILLE     PTCLDY    72  68  88 CALM      29.93F
$$

WIZ051-052-058>065-066-070>072-280500-
SOUTHEAST WISCONSIN

CITY           SKY/WX    TMP DP  RH WIND       PRES   REMARKS
MILWAUKEE      MOCLDY    74  69  85 SE5       29.95F
WAUKESHA       CLEAR     70  64  83 SE3       29.97F
MILWAUKEE/TIMM PTCLDY    73  63  68 CALM      29.96F
RACINE         MOCLDY    72  68  87 CALM      29.97F
BURLINGTON     MOCLDY    71  68  92 CALM      29.95F
KENOSHA        CLOUDY    75  71  87 VRB3      29.96S
FOND DU LAC    CLEAR     71  65  81 E5        29.96S
SHEBOYGAN      CLOUDY    67  65  93 CALM      29.96F FOG
WEST BEND      PTCLDY    64  63  94 E6        29.96F
JUNEAU         CLEAR     68  65  90 E6        29.96F
$$

LSZ147-162-280500-
LAKE SUPERIOR

STATION/POSITION TIME  TEMP    WIND        PRES    WAVE
                       AIR SEA DIR/SP/G            HT/PER
                 (UTC) (F)     (DEG/KT/KT) (MB)    (FT/S)
W MID LAKE BUOY  0350   60 60  350/  4/  4 1016.8R   1
DEVILS ISLAND    0400   62      40/  6/  6 1017.3R
SAXON HARBOR     0300   67      70/  4/  6 1016.3R
$$

LMZ867-665-643>646-280500-
LAKE MICHIGAN

STATION/POSITION TIME  TEMP    WIND        PRES    WAVE
                       AIR SEA DIR/SP/G            HT/PER
                 (UTC) (F)     (DEG/KT/KT) (MB)    (FT/S)
CHAMBERS ISLAND  0340   70     360/ 15/ 17 1015.6R
S GREEN BAY BUOY 0300   73 75   40/ 16/ 17   N/A
N MID LAKE BUOY  0350   69 70   20/ 16/ 19 1014.1R   2/ 3
NORTHPORT PIER   0300   71      10/  9/ 12 1014.9R
SISTER BAY       0321   70      30/  8/  9   N/A
ALGOMA LAKESHORE 0243             CALM       N/A
KEWAUNEE LAKESHO 0300          290/  2/  2 1014.3
SHEBOYGAN LAKESH 0400   69     220/  4/  4 1014.6F
PORT WASHINGTON  0300   66      30/  1/  2 1015.2
ATWATER BUOY     0400   65 60   30/  4/  6 1015.9F
MILWAUKEE LAKESH 0310   72        CALM       N/A
S MID LAKE BUOY  0350   76 76  120/  8/  8 1013.1F   1
KENOSHA   LAKESH 0400   73     140/  3/  5 1013.9S
$$

TC  - TEMPERATURE IN CELSIUS
VSB - VISIBILITY IN STATUTE MILES
WCI - WIND CHILL INDEX
HX  - HEAT INDEX




USA.gov is the U.S. government's official web portal to all federal, state and local government web resources and services.